Tracking 31027 objects as of 19-Jul-2025
HD Live streaming from Space Station
objects crossing your sky now

STARLINK-1648

Track STARLINK-1648 now!
10-day predictions
STARLINK-1648 is classified as:


NORAD ID: 46533
Int'l Code: 2020-070B
Perigee: 553.4 km
Apogee: 555.3 km
Inclination: 53.1 °
Period: 95.6 minutes
Semi major axis: 6925 km
RCS: Unknown
Launch date: October 6, 2020
Source: United States (US)
Launch site: AIR FORCE EASTERN TEST RANGE (AFETR)
Your satellite tracking list
KL-BETA B
Track 1 satellite(s)




NASA's NSSDC Master Catalog

Two Line Element Set (TLE):
1 46533U 20070B   25199.55657677  .00000336  00000-0  41451-4 0  9995
2 46533  53.0545 147.6813 0001371  88.1403 271.9743 15.06404955264218
Source of the keplerian elements: AFSPC